This demonstration page uses our WeatherBlox Daily Observations layout. Learn more.

Left ArrowRight Arrow

41.12389, -100.76542

Hourly Observations for September 30, 2016

Temp ( °F °C ) Dew Point ( °F °C ) Humidity (%) Winds ( mph kmh ) Pressure ( in mb ) Visibility ( mi km ) Precip ( " mm )
12:53 am 00:53 Clear 45 7.2 40 4.4 83 83 ESE 9 15 30.29 1026 10 16 0.00 0.00
1:53 am 01:53 Clear 44 6.7 40 4.4 85 85 E 7 11 30.28 1025 10 16 0.00 0.00
2:53 am 02:53 Clear 43 6.1 40 4.4 89 89 E 6 9 30.26 1025 10 16 0.00 0.00
3:53 am 03:53 Clear 43 6.1 40 4.4 89 89 ESE 6 9 30.26 1025 10 16 0.00 0.00
4:53 am 04:53 Clear 42 5.6 40 4.4 92 92 E 6 9 30.25 1025 10 16 0.00 0.00
5:53 am 05:53 Clear 43 6.1 41 5 93 93 E 5 7 30.25 1025 10 16 0.00 0.00
6:53 am 06:53 Clear 43 6.1 41 5 93 93 E 7 11 30.25 1024 10 16 0.00 0.00
7:53 am 07:53 Sunny 42 5.6 41 5 96 96 ESE 7 11 30.26 1025 10 16 0.00 0.00
8:53 am 08:53 Sunny 48 8.9 45 7.2 89 89 ESE 7 11 30.26 1025 10 16 0.00 0.00
9:53 am 09:53 Sunny 55 12.8 47 8.3 74 74 SE 6 9 30.25 1024 10 16 0.00 0.00
10:53 am 10:53 Sunny 61 16.1 46 7.8 58 58 SSE 14 22 30.24 1024 10 16 0.00 0.00
11:53 am 11:53 Sunny 64 17.8 46 7.8 52 52 SSE 12 19 30.22 1023 10 16 0.00 0.00
12:53 pm 12:53 Sunny 69 20.6 46 7.8 44 44 SSE 15 24 30.20 1023 10 16 0.00 0.00
1:53 pm 13:53 Sunny 71 21.7 47 8.3 42 42 SSE 9 15 30.17 1022 10 16 0.00 0.00
2:53 pm 14:53 Sunny 70 21.1 46 7.8 42 42 S 14 22 30.15 1021 10 16 0.00 0.00
3:53 pm 15:53 Sunny 69 20.6 47 8.3 45 45 ESE 8 13 30.14 1021 10 16 0.00 0.00
4:53 pm 16:53 Sunny 68 20 48 8.9 49 49 ESE 9 15 30.13 1020 10 16 0.00 0.00
5:53 pm 17:53 Sunny 68 20 47 8.3 47 47 ESE 8 13 30.13 1020 10 16 0.00 0.00
6:53 pm 18:53 Sunny 64 17.8 46 7.8 52 52 ESE 8 13 30.14 1021 10 16 0.00 0.00
7:53 pm 19:53 Clear 59 15 47 8.3 64 64 E 5 7 30.14 1021 10 16 0.00 0.00
8:53 pm 20:53 Clear 56 13.3 46 7.8 70 70 ESE 7 11 30.14 1021 10 16 0.00 0.00
9:53 pm 21:53 Clear 53 11.7 45 7.2 74 74 ESE 7 11 30.14 1021 10 16 0.00 0.00
10:53 pm 22:53 Clear 52 11.1 46 7.8 80 80 ESE 7 11 30.11 1020 10 16 0.00 0.00
11:53 pm 23:53 Clear 54 12.2 46 7.8 75 75 ESE 6 9 30.10 1019 10 16 0.00 0.00

Powered by AerisWeather